[[{"header":{"parameterUnit":"m.s-1","parameterCategory":1,"la1":30.2991,"la2":30.254,"lo1":-89.0895,"lo2":-89.0444,"dy":0.0017,"dx":0.0017,"nx":28,"ny":28,"refTime":"2026-01-29T03:00:00:Z","depth":0,"parameterNumber":2,"parameterNumberName":"U-component_of_WINDS"},"data":[0,0,0,0,0,0,0,0,0,0,0,0,0,0,0,0,0,0,0,0,0,0,0,0,0,0,0,0,0,0,0,0,0,0,0,0,0,0,0,0,0,0,0,0,0,0,0,0,0,0,0,0,0,0,0,0,0,0,-3.5933,-3.5933,0,-3.5936,-3.5936,-3.5936,-3.5845,-3.5842,-3.584,-3.5838,-3.5842,-3.5845,-3.5847,0,0,0,0,0,0,0,0,0,0,0,0,0,-3.5851,-3.5853,-3.5933,-3.5933,-3.5933,-3.5936,-3.5936,-3.5936,-3.5845,-3.5842,-3.5839,-3.5837,-3.5842,-3.5844,-3.5847,0,0,0,0,0,0,0,0,0,0,0,0,0,-3.5874,-3.5854,-3.5933,-3.5888,-3.5884,-3.5936,-3.5936,-3.5936,-3.5846,-3.5842,-3.5839,-3.5835,-3.5841,-3.5844,-3.5848,-3.5943,0,0,-3.5859,-3.586,0,0,0,0,0,0,0,0,-3.5872,-3.5877,-3.5895,-3.5891,-3.5887,-3.5886,-3.5908,-3.5938,-3.5847,-3.586,-3.5838,-3.5833,-3.586,-3.5862,-3.587,-3.5943,-3.5943,-3.5859,-3.5861,-3.5863,-3.5864,0,0,0,0,0,0,0,-3.5871,-3.5876,-3.5934,-3.5895,-3.589,-3.5869,-3.5868,-3.5914,-3.5881,-3.5859,-3.5852,-3.5854,-3.5857,-3.5867,-3.587,-3.5943,-3.5859,-3.5862,-3.5864,-3.5866,-3.6095,-3.6099,0,0,0,0,0,0,-3.5875,-3.5875,-3.5934,-3.5934,-3.587,-3.5873,-3.5872,-3.589,-3.588,-3.5875,-3.5857,-3.585,-3.5863,-3.5866,-3.587,-3.598,-3.5863,-3.5866,-3.5868,-3.6091,-3.6096,-3.61,0,0,0,0,0,0,-3.5874,-3.5881,-3.5934,-3.5903,-3.5908,-3.5878,-3.5899,-3.5892,-3.5902,-3.5878,-3.5872,-3.5873,-3.586,-3.5865,-3.5925,-3.5979,-3.5868,-3.5871,-3.6086,-3.6093,-3.6098,-3.6203,0,0,0,0,0,0,-3.5872,-3.5881,-3.5917,-3.5904,-3.591,-3.5989,-3.5903,-3.5895,-3.5908,-3.5898,-3.5892,-3.5887,-3.5857,-3.592,-3.5929,-3.5982,-3.5874,-3.6081,-3.6089,-3.6096,-3.6194,-3.6211,-3.6226,0,0,0,0,0,-3.5869,-3.5946,-3.5919,-3.5926,-3.5953,-3.5992,-3.5995,-3.5959,-3.5913,-3.5948,-3.5933,-3.5887,-3.5972,-3.5927,-3.5936,-3.5991,-3.6078,-3.6087,-3.6096,-3.6187,-3.6208,-3.6226,0,0,0,0,0,0,-3.5965,-3.5944,-3.5913,-3.5988,-3.5993,-3.5977,-3.602,-3.5982,-3.6001,-3.5991,-3.5946,-3.5945,-3.6013,-3.6008,-3.5959,-3.6083,-3.6017,-3.6028,-3.6084,-3.6103,-3.6119,-3.6118,-3.5877,0,0,0,0,0,-3.5995,-3.6028,-3.6008,-3.6076,-3.608,-3.605,-3.6066,-3.6038,-3.6041,-3.6042,-3.6032,-3.6037,-3.6065,-3.6084,-3.6108,-3.6194,-3.6191,-3.6236,-3.6252,-3.6265,-3.6275,-3.6321,-3.634,-3.6129,-3.6129,-3.6129,0,0,-3.6057,-3.605,-3.6073,-3.6095,-3.6095,-3.6131,-3.6052,-3.6093,-3.6119,-3.6048,-3.6105,-3.6098,-3.6101,-3.6175,-3.6207,-3.6173,-3.6333,-3.6277,-3.6287,-3.629,-3.6332,-3.6352,-3.6369,-3.6135,-3.6134,-3.6133,0,0,-3.6188,-3.6186,-3.6243,-3.6245,-3.6246,-3.6226,-3.624,-3.623,-3.6223,-3.6279,-3.6226,-3.6258,-3.6306,-3.6311,-3.632,-3.6455,-3.6413,-3.6464,-3.6547,-3.6592,-3.6608,-3.6623,-3.6671,-3.6689,-3.6474,-3.6475,-3.6475,0,-3.6265,-3.6316,-3.6277,-3.6321,-3.6333,-3.6271,-3.6328,-3.6332,-3.6342,-3.6352,-3.6314,-3.6374,-3.6372,-3.6446,-3.6479,-3.6489,-3.6503,-3.6464,-3.6609,-3.6623,-3.6636,-3.6682,-3.67,-3.6481,-3.648,-3.6479,-3.6479,0,-3.6411,-3.6447,-3.6493,-3.6504,-3.6521,-3.6572,-3.6541,-3.6563,-3.6534,-3.6518,-3.6577,-3.6572,-3.6595,-3.6611,-3.6583,-3.6681,-3.666,-3.6617,-3.6549,-3.6663,-3.6705,-3.6722,-3.6489,-3.6487,-3.6485,-3.6484,0,0,-3.66,-3.659,-3.6607,-3.6612,-3.661,-3.6637,-3.6686,-3.6708,-3.6728,-3.6738,-3.6778,-3.6821,-3.6781,-3.6791,-3.6764,-3.6803,-3.6911,-3.6755,-3.6754,-3.6784,-3.7019,-3.7052,-3.7072,-3.6884,-3.6887,-3.689,-3.7019,0,-3.6727,-3.6809,-3.6776,-3.6861,-3.6894,-3.6837,-3.6879,-3.6884,-3.6871,-3.6898,-3.6884,-3.6916,-3.6861,-3.6867,-3.6903,-3.689,-3.6958,-3.688,-3.6921,-3.6923,-3.6921,-3.7094,-3.7128,-3.725,-3.7035,-3.7038,-3.704,0,-3.6885,-3.6901,-3.699,-3.6983,-3.6995,-3.7034,-3.7052,-3.7079,-3.7083,-3.7071,-3.7084,-3.7048,-3.7096,-3.703,-3.7096,-3.7045,-3.706,-3.7056,-3.706,-3.7061,-3.6987,-3.71,-3.7288,-3.7306,-3.7065,-3.7063,-3.7061,0,-3.7014,-3.7058,-3.7116,-3.7122,-3.7116,-3.7144,-3.7143,-3.7143,-3.7159,-3.7175,-3.7185,-3.7207,-3.7219,-3.7238,-3.7209,-3.7164,-3.728,-3.7211,-3.7272,-3.7273,-3.7297,-3.7296,-3.749,-3.7309,-3.7309,-3.7309,-3.7308,0,-3.7158,-3.7214,-3.7174,-3.721,-3.7272,-3.7234,-3.7297,-3.7289,-3.7291,-3.7325,-3.7277,-3.731,-3.7271,-3.7301,-3.728,-3.7338,-3.7344,-3.7336,-3.733,-3.734,-3.7341,-3.7348,-3.7339,-3.7314,-3.7313,-3.7312,-3.7311,0,-3.7311,-3.7287,-3.7347,-3.7336,-3.7335,-3.7381,-3.7372,-3.7406,-3.7391,-3.7435,-3.7443,-3.7419,-3.7452,-3.7426,-3.7459,-3.7444,-3.7521,-3.7503,-3.752,-3.7514,-3.7576,-3.757,-3.7781,-3.7806,-3.761,-3.7612,-3.7614,0,-3.7404,-3.7446,-3.7441,-3.746,-3.7462,-3.7494,-3.7509,-3.7475,-3.7493,-3.7502,-3.7535,-3.7564,-3.7585,-3.764,-3.7626,-3.7651,-3.7633,-3.7705,-3.7636,-3.7646,-3.7633,-3.7631,-3.7635,-3.7719,-3.7721,-3.7723,-3.7724,0,-3.7572,-3.7558,-3.7582,-3.7603,-3.7624,-3.7639,-3.765,-3.7669,-3.7633,-3.7657,-3.769,-3.7706,-3.774,-3.7769,-3.779,-3.7789,-3.7752,-3.7747,-3.7762,-3.7772,-3.7779,-3.7776,-3.7557,-3.7741,-3.774,-3.7738,-3.7738,-3.7737,-3.7697,-3.7732,-3.7733,-3.7763,-3.7768,-3.778,-3.7811,-3.78,-3.7826,-3.785,-3.7829,-3.7869,-3.7873,-3.7897,-3.7901,-3.7933,-3.7903,-3.7925,-3.793,-3.7936,-3.7945,-3.7776,-3.7936,-3.7936,-3.7935,-3.7935,-3.7935,0,-3.7861,-3.786,-3.7887,-3.7904,-3.7928,-3.7891,-3.7902,-3.7924,-3.796,-3.7967,-3.7989,-3.8028,-3.8057,-3.8046,-3.8072,-3.8099,-3.8082,-3.8107,-3.8104,-3.8104,-3.797,-3.7954,-3.812,-3.812,-3.812,-3.812,-3.812,-3.812,-3.7949,-3.8006,-3.7993,-3.8053,-3.8051,-3.809,-3.8099,-3.811,-3.8116,-3.8161,-3.8185,-3.8178,-3.8178,-3.8204,-3.8229,-3.8225,-3.8237,-3.8268,-3.8258,-3.8132,-3.8114,-3.8096,-3.8081,-3.8271,-3.8271,-3.8389,-3.839,-3.8391]},{"header":{"parameterUnit":"m.s-1","parameterCategory":1,"la1":30.2991,"la2":30.254,"lo1":-89.0895,"lo2":-89.0444,"dy":0.0017,"dx":0.0017,"nx":28,"ny":28,"refTime":"2026-01-29T03:00:00:Z","depth":0,"parameterNumber":3,"parameterNumberName":"V-component_of_WINDS"},"data":[0,0,0,0,0,0,0,0,0,0,0,0,0,0,0,0,0,0,0,0,0,0,0,0,0,0,0,0,0,0,0,0,0,0,0,0,0,0,0,0,0,0,0,0,0,0,0,0,0,0,0,0,0,0,0,0,0,0,1.1633,1.1633,0,1.1628,1.1628,1.1628,1.1659,1.166,1.1661,1.1662,1.1653,1.1652,1.1651,0,0,0,0,0,0,0,0,0,0,0,0,0,1.1669,1.1668,1.1633,1.1633,1.1633,1.1628,1.1628,1.1628,1.1659,1.166,1.1661,1.1662,1.1653,1.1652,1.1651,0,0,0,0,0,0,0,0,0,0,0,0,0,1.1657,1.1667,1.1633,1.1648,1.1649,1.1628,1.1628,1.1628,1.1659,1.166,1.1661,1.1663,1.1654,1.1652,1.165,1.1613,0,0,1.1645,1.1645,0,0,0,0,0,0,0,0,1.1658,1.1656,1.1646,1.1647,1.1648,1.1645,1.1637,1.1623,1.1658,1.1655,1.1662,1.1663,1.1649,1.1648,1.1644,1.1613,1.1613,1.1645,1.1644,1.1644,1.1643,0,0,0,0,0,0,0,1.1658,1.1656,1.1631,1.1646,1.1647,1.1654,1.1654,1.1634,1.1644,1.1655,1.1658,1.1657,1.165,1.1645,1.1644,1.1612,1.1645,1.1644,1.1643,1.1642,1.1552,1.1551,0,0,0,0,0,0,1.1658,1.1657,1.1631,1.1631,1.1657,1.1653,1.1652,1.1645,1.1645,1.1646,1.1656,1.1658,1.1647,1.1646,1.1644,1.1601,1.1644,1.1642,1.1641,1.1554,1.1552,1.1551,0,0,0,0,0,0,1.1658,1.1655,1.1631,1.1644,1.1642,1.1651,1.1642,1.1644,1.1639,1.1645,1.1647,1.1649,1.1648,1.1646,1.1621,1.1601,1.1641,1.164,1.1556,1.1553,1.1551,1.1515,0,0,0,0,0,0,1.1659,1.1655,1.1641,1.1644,1.1641,1.1609,1.1641,1.1643,1.1637,1.164,1.1639,1.164,1.1649,1.1623,1.162,1.16,1.1639,1.1557,1.1555,1.1552,1.1518,1.1512,1.1507,0,0,0,0,0,1.166,1.163,1.164,1.1637,1.1624,1.1608,1.1606,1.1618,1.1635,1.1621,1.1625,1.164,1.1604,1.1621,1.1617,1.1596,1.1559,1.1555,1.1552,1.1521,1.1513,1.1507,0,0,0,0,0,0,1.1623,1.1631,1.1642,1.1612,1.1609,1.1613,1.1596,1.161,1.1601,1.1604,1.1619,1.1618,1.1591,1.1591,1.1609,1.1561,1.1584,1.158,1.1562,1.1555,1.1549,1.1549,1.1637,0,0,0,0,0,1.1612,1.1599,1.1606,1.1579,1.1577,1.1587,1.158,1.159,1.1587,1.1586,1.1588,1.1584,1.1572,1.1563,1.1552,1.1519,1.1519,1.1502,1.1497,1.1492,1.1488,1.1471,1.1464,1.154,1.154,1.154,0,0,1.1588,1.159,1.1581,1.1571,1.157,1.1556,1.1585,1.1569,1.1559,1.1583,1.156,1.1562,1.1558,1.1529,1.1516,1.1528,1.1468,1.1488,1.1484,1.1483,1.1467,1.146,1.1454,1.1538,1.1538,1.1539,0,0,1.1536,1.1537,1.1515,1.1514,1.1513,1.152,1.1515,1.1517,1.152,1.1498,1.1516,1.1504,1.1482,1.148,1.1475,1.1426,1.144,1.1422,1.1392,1.1375,1.1369,1.1364,1.1347,1.134,1.1418,1.1418,1.1418,0,1.1506,1.1486,1.1502,1.1485,1.148,1.1504,1.1482,1.148,1.1474,1.147,1.1484,1.1459,1.1459,1.143,1.1418,1.1414,1.1408,1.1421,1.1369,1.1364,1.1359,1.1343,1.1336,1.1416,1.1416,1.1416,1.1416,0,1.145,1.1436,1.1418,1.1415,1.1408,1.1388,1.1401,1.1392,1.1403,1.1409,1.1386,1.1387,1.1377,1.1371,1.138,1.1344,1.1351,1.1367,1.1391,1.135,1.1335,1.1328,1.1413,1.1413,1.1414,1.1415,0,0,1.1373,1.138,1.1373,1.1373,1.1374,1.1363,1.1345,1.1337,1.133,1.1326,1.1311,1.1294,1.1309,1.1304,1.1314,1.1299,1.1261,1.1317,1.1317,1.1307,1.1221,1.121,1.1202,1.1271,1.1269,1.1269,1.1222,0,1.1324,1.1294,1.1308,1.1276,1.1264,1.1287,1.1271,1.1271,1.1276,1.1266,1.1271,1.1259,1.1279,1.1277,1.1264,1.1268,1.1244,1.1272,1.1256,1.1256,1.1256,1.1194,1.1181,1.1137,1.1216,1.1215,1.1214,0,1.1261,1.1257,1.1224,1.123,1.1225,1.1211,1.1206,1.1196,1.1196,1.12,1.1196,1.121,1.1192,1.1217,1.1193,1.1212,1.1206,1.1208,1.1207,1.1205,1.1232,1.1191,1.1123,1.1116,1.1205,1.1206,1.1206,0,1.1209,1.1195,1.1174,1.1173,1.1179,1.1168,1.117,1.1171,1.1166,1.1161,1.1158,1.115,1.1146,1.114,1.1151,1.1168,1.1126,1.1151,1.1129,1.1129,1.1119,1.1119,1.1049,1.1115,1.1116,1.1116,1.1116,0,1.1152,1.1131,1.1151,1.1138,1.1116,1.1133,1.111,1.1114,1.1116,1.1104,1.1123,1.1111,1.1127,1.1117,1.1125,1.1105,1.1102,1.1106,1.1108,1.1104,1.1104,1.11,1.1103,1.1114,1.1114,1.1115,1.1115,0,1.109,1.1102,1.1081,1.1089,1.1091,1.1074,1.1081,1.1069,1.1077,1.1062,1.1059,1.107,1.1059,1.107,1.106,1.1066,1.1038,1.1045,1.1038,1.104,1.1018,1.102,1.0943,1.0934,1.1006,1.1005,1.1005,0,1.1053,1.1038,1.1045,1.1039,1.104,1.103,1.1026,1.1042,1.1036,1.1036,1.1024,1.1016,1.1009,1.0991,1.0998,1.099,1.0997,1.0971,1.0996,1.0992,1.0997,1.0998,1.0996,1.0965,1.0964,1.0963,1.0963,0,1.0985,1.0993,1.0986,1.0982,1.0976,1.0973,1.0972,1.0966,1.0983,1.0975,1.0966,1.0961,1.0952,1.0943,1.0937,1.0939,1.0953,1.0955,1.095,1.0945,1.0942,1.0944,1.1024,1.0957,1.0957,1.0958,1.0958,1.0958,1.0934,1.0923,1.0927,1.0919,1.092,1.0919,1.0909,1.0916,1.0908,1.0902,1.0912,1.09,1.0901,1.0896,1.0896,1.0886,1.0897,1.0889,1.0887,1.0885,1.0882,1.0944,1.0885,1.0886,1.0886,1.0886,1.0886,0,1.0868,1.0873,1.0865,1.0864,1.0858,1.0874,1.0874,1.0868,1.0857,1.0858,1.0852,1.0841,1.0833,1.084,1.0833,1.0824,1.0831,1.0822,1.0823,1.0823,1.0872,1.0878,1.0817,1.0817,1.0817,1.0817,1.0817,1.0817,1.0833,1.0815,1.0823,1.0805,1.081,1.0799,1.0797,1.0796,1.0797,1.0785,1.0779,1.0784,1.0787,1.0781,1.0775,1.0777,1.0774,1.0762,1.0767,1.0812,1.0819,1.0826,1.0831,1.0761,1.0761,1.0718,1.0718,1.0718]}]]